SCP
0 0 0 0 0 0 0 0 0 0 0 0 0 0 0 0 0 0 0 0 0 0 0 0 0 0 0 0 0 0 0 0 0 0 0 0 0 0 0 0 0 0 0
0 0 0 0 0 0 0 0 0 0 0 0 0 0 0 0 0 0 0 0 0 0 0 0 0 0 0 0 0 0 0 0 0 0 0 0 0 0 0 0 0 0 0
0 0 0 0 0 0 0 0 0 0 0 0 0 0 0 0 0 0 0 0 0 0 0 0 0 0 0 0 0 0 0 0 0 0 0 0 0 0 0 0 0 0 0
0 0 0 0 0 0 0 0 0 0 0 0 0 0 0 0 0 0 0 0 0 0 0 0 0 0 0 0 0 0 0 0 0 0 0 0 0 0 0 0 0 0 0
0 0 0 0 0 0 0 0 0 0 0 0 0 0 0 0 0 0 0 0 0 0 0 0 0 0 0 0 0 0 0 0 0 0 0 0 0 0 0 0 0 0 0
0 0 0 0 0 0 0 0 0 0 0 0 0 0 0 0 0 0 0 0 0 0 0 0 0 0 0 0 0 0 0 0 0 0 0 0 0 0 0 0 0 0 0
0 0 0 0 0 0 0 0 0 0 0 0 0 0 0 0 0 0 0 0 0 0 0 0 0 0 0 0 0 0 0 0 0 0 0 0 0 0 0 0 0 0 0
0 0 0 0 0 0 0 0 0 0 0 0 0 0 0 0 0 0 0 0 0 0 0 0 0 0 0 0 0 0 0 0 0 0 0 0 0 0 0 0 0 0 0
0 0 0 0 0 0 0 0 0 0 0 0 0 0 0 0 0 0 0 0 0 0 0 0 0 0 0 0 0 0 0 0 0 0 0 0 0 0 0 0 0 0 0
0 0 0 0 0 0 0 0 0 0 0 0 0 0 0 0 0 0 0 0 0 0 0 0 0 0 0 0 0 0 0 0 0 0 0 0 0 0 0 0 0 0 0
0 0 0 0 0 0 0 0 0 0 0 0 0 0 0 0 0 0 0 0 0 0 0 0 0 0 0 0 0 0 0 0 0 0 0 0 0 0 0 0 0 0 0
0 0 0 0 0 0 0 0 0 0 0 0 0 0 0 0 0 0 0 0 0 0 0 0 0 0 0 0 0 0 0 0 0 0 0 0 0 0 0 0 0 0 0
0 0 0 0 0 0 0 0 0 0 0 0 0 0 0 0 0 0 0 0 0 0 0 0 0 0 0 0 0 0 0 0 0 0 0 0 0 0 0 0 0 0 0
0 0 0 0 0 0 0 0 0 0 0 0 0 0 0 0 0 0 0 0 0 0 0 -0 0 0 0 0 0 0 0 0 0 0 0 0 0 0 0 0 0 0 0
0 0 0 0 0 0 0 0 0 0 0 0 0 0 0 0 0 0 0 0 0 0 0 0 0 0 0 0 0 0 0 0 0 0 0 0 0 0 0 0 0 0 0
0 0 0 0 0 0 0 0 0 0 0 0 0 0 0 0 0 0 0 0 0 0 0 0 0 0 0 0 0 0 0 0 0 0 0 0 0 0 0 0 0 0 0
0 0 0 0 0 0 0 0 0 0 0 0 0 0 0 0 0 0 0 0 0 0 0 0 0 0 0 0 0 0 0 0 0 0 0 0 0 0 0 0 0 0 0
0 0 0 0 0 0 0 0 0 0 0 0 0 0 0 0 0 0 0 0 0 0 0 0 0 0 0 0 0 0 0 0 0 0 0 0 0 0 0 0 0 0 0
0 0 0 0 0 0 0 0 0 0 0 0 0 0 0 0 0 0 0 0 0 0 0 0 0 0 0 0 0 0 0 0 0 0 0 0 0 0 0 0 0 0 0
0 0 0 0 0 0 0 0 0 0 0 0 0 0 0 0 0 0 0 0 0 0 0 0 0 0 0 0 0 0 0 0 0 0 0 0 0 0 0 0 0 0 0
0 0 0 0 0 0 0 0 0 0 0 0 0 0 0 0 0 0 0 0 0 0 0 0 0 0 0 0 0 0 0 0 0 0 0 0 0 0 0 0 0 0 0
0 0 0 0 0 0 0 0 0 0 0 0 0 0 0 0 0 0 0 0 0 0 0 0 0 0 0 0 0 0 0 0 0 0 0 0 0 0 0 0 0 0 0
0 0 0 0 0 0 0 0 0 0 0 0 0 0 0 0 0 0 0 0 0 0 0 0 0 0 0 0 0 0 0 0 0 0 0 0 0 0 0 0 0 0 0
0 0 0 0 0 0 0 0 0 0 0 0 0 0 0 0 0 0 0 0 0 0 0 0 0 0 0 0 0 0 0 0 0 0 0 0 0 0 0 0 0 0 0
0 0 0 0 0 0 0 0 0 0 0 0 0 0 0 0 0 0 0 0 0 0 0 0 0 0 0 0 0 0 0 0 0 0 0 0 0 0 0 0 0 0 0
0 0 0 0 0 0 0 0 0 0 0 0 0 0 0 0 0 0 0 0 0 0 0 0 0 0 0 0 0 0 0 0 0 0 0 0 0 0 0 0 0 0 0
Wind_Speed
3 3 2 2 2 2 2 2 2 3 3 3 2 2 2 2 2 2 1 5 6 7 7 7 8 8 8 8 8 8 8 8 8 7 7 7 8 8 7 7 7 7 6
4 3 3 2 2 1 2 2 3 2 2 1 2 2 1 1 1 1 1 1 4 5 6 6 7 7 8 8 8 8 8 8 8 8 8 7 8 8 8 8 7 7 7
5 4 3 2 2 2 2 2 3 2 2 2 2 2 1 1 0 1 1 0 1 3 5 5 5 6 7 7 8 8 8 8 8 8 8 8 8 8 8 8 8 8 7
5 4 3 2 2 2 2 2 2 2 2 2 1 2 1 1 1 0 0 0 0 1 2 3 4 5 6 7 8 8 8 9 9 9 9 9 9 9 9 9 9 9 9
6 4 3 3 3 3 2 2 2 2 1 1 1 2 2 1 1 1 0 0 1 1 1 1 3 4 5 6 6 7 7 8 9 9 10 10 10 9 9 10 10 10 10
6 5 3 4 4 3 2 2 2 2 2 1 2 3 2 2 2 1 1 0 0 1 1 1 1 1 2 3 3 4 5 5 6 8 9 9 10 10 10 10 10 10 11
6 5 4 4 4 3 3 3 2 3 2 1 2 2 3 3 3 2 2 1 1 1 1 1 0 0 0 1 1 2 3 4 4 6 6 7 8 9 10 10 11 11 11
6 6 5 4 4 3 3 3 3 2 2 2 2 2 2 3 3 3 2 2 2 1 1 1 1 1 0 0 1 1 1 1 1 3 3 4 5 6 8 9 9 10 11
6 5 6 5 4 4 4 3 3 4 2 1 1 3 3 2 1 2 3 3 2 1 1 1 1 1 0 0 1 1 1 0 0 1 2 2 3 4 6 7 7 8 9
5 6 6 6 5 4 4 3 3 3 3 2 1 2 1 3 3 1 2 2 2 2 2 1 1 1 0 0 0 1 0 0 1 1 1 2 2 2 3 4 6 8 8
4 5 6 5 5 4 4 3 3 3 2 3 3 2 2 2 2 2 1 2 2 2 2 2 1 1 0 1 1 1 1 0 1 2 2 2 2 2 3 4 6 7 8
3 4 6 5 5 4 4 4 3 4 3 3 2 2 3 2 2 2 2 1 1 2 2 2 1 1 1 1 1 1 1 1 1 1 2 2 3 3 4 4 5 6 6
3 4 5 5 4 4 4 4 4 4 3 3 3 2 2 2 2 3 3 2 0 1 2 2 1 1 1 0 1 2 2 2 2 3 3 3 4 5 5 5 6 6 7
4 5 5 5 5 5 5 4 3 3 3 3 3 3 2 2 2 2 3 3 2 1 1 2 2 1 1 1 1 2 2 4 4 4 5 5 6 6 6 7 7 7 7
5 6 6 6 5 5 5 5 3 3 4 3 3 3 2 2 2 2 2 3 4 2 2 2 2 2 1 1 2 2 2 4 6 6 6 7 7 7 8 8 8 8 8
5 7 6 6 6 5 5 5 4 4 4 3 3 4 3 2 2 2 2 2 2 3 2 2 2 2 2 2 2 2 3 5 6 7 7 7 7 8 8 8 9 9 9
7 8 7 7 6 6 6 5 4 5 5 4 4 4 4 3 2 2 2 2 2 3 3 2 2 2 2 3 2 2 3 3 4 6 7 7 7 7 7 8 8 9 9
7 7 7 7 7 7 6 7 7 6 6 6 5 5 5 4 4 3 3 3 3 4 3 4 2 2 3 3 3 3 3 3 3 6 7 7 7 7 7 7 8 8 9
7 7 7 8 8 7 7 7 7 7 7 7 6 7 6 5 5 4 4 4 3 3 3 3 3 2 2 2 2 3 3 3 4 5 6 6 7 8 8 8 8 9 9
8 8 8 8 8 8 8 7 7 7 7 6 6 7 7 7 7 7 5 6 4 4 3 3 3 3 3 2 2 3 3 3 3 4 5 6 7 8 8 9 9 10 10
8 8 8 7 7 7 7 8 8 8 7 7 7 7 8 9 10 8 6 6 6 5 4 4 4 3 4 3 4 3 4 4 4 4 4 4 4 5 6 8 9 10 11
7 7 8 8 8 7 9 12 10 8 7 8 8 7 7 9 11 12 12 11 10 8 7 6 5 6 7 6 4 4 4 3 4 2 3 4 3 6 7 6 9 12 12
8 8 8 8 8 8 10 11 13 8 8 8 8 7 6 7 9 8 10 12 12 14 12 8 8 9 8 7 5 5 6 6 6 4 3 6 5 7 7 7 12 13 13
7 7 7 8 7 8 10 11 11 9 7 8 8 8 8 7 7 7 7 7 8 9 11 10 9 10 9 7 7 7 6 6 7 6 5 6 6 7 7 7 10 13 14
7 7 6 7 8 8 9 10 9 6 6 8 7 7 8 8 8 9 7 8 8 8 9 12 12 12 12 11 8 5 5 5 7 6 5 6 6 6 6 7 8 11 12
7 6 6 6 7 7 8 10 10 5 6 6 6 7 9 10 9 8 8 8 9 8 6 6 7 9 10 10 11 10 8 8 7 6 5 6 5 4 5 5 5 5 6
Wind_Direction
143 133 120 110 105 96 97 93 84 74 59 45 55 83 108 116 141 145 178 198 191 191 190 189 190 192 191 192 191 189 191 189 185 185 186 183 181 178 177 175 170 166 165
149 141 134 129 121 113 103 101 97 89 73 54 50 58 80 95 127 150 162 215 207 200 200 200 202 203 201 203 203 200 204 204 197 195 198 197 193 191 190 188 186 182 178
152 144 141 145 141 121 109 92 83 77 77 61 46 41 55 37 92 163 168 195 238 226 213 210 217 220 217 219 218 214 213 213 209 205 205 206 204 201 201 199 197 194 192
153 145 144 150 142 124 115 107 90 81 64 59 45 27 30 15 4 287 166 174 190 241 233 233 234 234 235 235 234 226 220 216 215 213 212 213 214 212 210 208 206 202 200
155 148 151 151 145 129 120 125 89 98 91 73 69 53 33 27 5 2 112 207 197 212 230 269 266 257 251 250 249 241 230 222 217 216 217 220 223 220 218 217 215 211 208
155 149 149 152 146 132 123 110 102 79 81 84 73 58 35 26 31 30 7 41 252 228 216 228 265 280 274 262 260 252 241 232 223 221 223 225 226 226 224 222 220 217 216
157 156 154 151 148 145 147 137 115 96 67 61 81 45 22 30 42 33 33 49 32 18 110 147 151 156 339 342 295 267 250 241 228 221 225 229 232 231 229 226 224 221 219
158 164 158 157 153 140 139 141 131 119 80 60 111 98 43 7 8 19 24 44 30 29 56 81 94 95 60 24 354 323 250 243 232 214 216 224 232 237 238 236 232 228 225
161 156 157 152 155 153 158 161 152 139 131 73 76 135 144 193 312 351 12 23 14 26 16 25 49 54 93 112 5 357 357 350 291 244 237 236 238 243 242 241 240 237 232
157 151 151 152 153 152 155 163 153 143 139 141 99 66 106 144 142 85 349 2 12 26 13 6 6 10 39 98 211 278 129 96 31 353 282 255 250 257 258 255 255 252 244
147 150 150 150 150 151 153 149 143 145 146 151 151 139 108 78 92 133 153 338 357 5 9 358 335 323 311 234 216 230 169 112 33 1 338 304 292 297 284 275 271 269 264
138 149 151 151 151 151 155 157 153 150 149 143 143 147 152 149 155 141 149 180 315 326 339 343 345 311 279 245 249 259 235 248 291 322 332 327 317 315 307 297 295 291 284
159 168 156 155 156 160 158 155 155 156 156 151 152 154 159 158 148 143 137 145 174 321 326 327 330 318 291 246 278 288 269 271 277 280 286 291 290 289 291 291 292 294 294
168 164 161 163 162 161 159 157 155 164 159 157 158 152 148 156 159 157 152 146 137 344 327 305 315 304 309 267 261 268 272 278 280 280 283 283 281 278 278 279 281 282 284
163 163 164 166 166 164 160 159 166 168 161 164 165 163 156 164 168 165 154 156 153 172 246 277 284 300 297 266 266 256 263 278 283 283 281 280 279 277 276 274 273 271 270
165 163 168 171 169 167 166 164 166 168 164 169 170 168 170 172 167 163 164 163 161 165 206 241 252 279 295 293 273 264 265 279 282 283 282 279 278 278 276 274 273 271 267
173 175 177 176 177 176 172 172 179 173 177 181 182 184 193 179 175 174 168 168 173 167 200 247 249 266 270 275 292 287 274 271 279 278 277 272 272 276 275 275 274 272 269
181 181 178 179 185 183 180 184 190 187 189 193 196 192 201 189 188 186 184 191 194 193 197 231 248 251 253 264 272 281 283 275 272 276 273 270 271 274 275 274 274 273 270
182 181 181 187 191 189 188 194 193 194 198 202 199 199 205 193 202 201 199 204 205 201 203 219 245 244 257 262 272 273 272 274 275 273 270 268 270 272 274 273 272 271 268
185 188 192 196 196 194 194 196 197 201 206 210 208 208 208 204 210 208 208 212 206 202 202 219 242 252 256 253 247 264 279 268 277 280 273 269 266 271 271 271 270 268 266
194 192 192 197 197 196 202 200 201 206 210 216 220 220 221 219 218 212 211 211 204 209 211 222 238 248 253 244 244 238 261 279 274 256 270 268 266 269 272 269 268 265 265
192 188 195 198 200 209 209 204 201 208 209 215 224 228 231 231 230 224 223 216 203 207 216 221 234 241 252 247 244 238 250 270 279 240 240 268 257 267 268 265 261 261 263
191 196 200 200 207 215 212 210 209 207 213 218 223 227 234 232 223 229 232 231 226 224 218 219 235 242 248 242 234 245 237 240 253 251 236 274 263 266 267 263 257 257 259
191 198 201 203 208 220 215 215 213 212 220 224 223 222 228 236 228 222 228 235 237 235 230 229 235 243 245 243 232 244 254 257 259 251 222 261 269 267 271 267 259 255 256
193 198 198 201 211 226 217 214 208 210 225 233 231 228 227 235 237 225 226 239 249 252 242 234 235 244 248 247 237 240 244 248 266 262 206 230 260 269 271 269 264 256 254
197 195 202 207 214 226 222 215 204 210 226 236 237 235 230 232 238 225 224 234 248 254 254 255 248 253 254 254 237 229 236 245 257 265 222 211 246 253 270 255 260 261 259